sat.trackr.live / text

‹ back to catalog

COSMIC

NORAD 66658 · 2025-274J

PAYLOAD ACTIVE UNKNOWN

§ Identity

Operator
Country
SKOR
Launch date
2025-11-26
Launch site
NSC
Launch vehicle
Mass (kg)
RCS (m²)

External: N2YO · Heavens-Above · Gunter

§ Orbital elements

Epoch: 2026-05-25T02:09:47.160288Z

Period
96.38 min
Inclination
97.7476°
Eccentricity
0.0014526
Mean motion
14.94116025 rev/d
Perigee alt
575.0 km
Apogee alt
595.2 km
Semi-major
6,963.3 km
B*
3.4042e-4
RAAN
74.8261°
Arg perigee
92.6288°
Mean anomaly
267.6595°
Rev number
2,678

§ Raw data

COSMIC1 66658U 25274J   26145.09012917  .00003590  00000+0  34042-3 0  99902 66658  97.7476  74.8261 0014526  92.6288 267.6595 14.94116025 26780

JSON: /api/v1/satellites/66658 · /tle

For live sub-satellite position, see the globe view (requires WebGL).

§ Visibility from observer

Set your observer location to see the next 7 days of passes ≥ 10°. The values pass through the URL so the page stays shareable.

No JS? Fill the form by hand. The geolocation button needs JavaScript.